Chillicothe, MO

3:33 PM CDT on May 25, 2017 (GMT -0500)
Chillicothe

Weather History for KCDJ - November, 2012

Change the Weather History Date:

Friday, November 2, 2012

  Actual Average (KIRK) Record (KIRK)
Temperature  
Mean Temperature 46 °F -  
Max Temperature 55 °F 54 °F 79 °F (1938)
Min Temperature 37 °F 38 °F 12 °F (1966)
Degree Days  
Heating Degree Days 19    
Moisture  
Dew Point 32 °F    
Average Humidity 59    
Maximum Humidity 79    
Minimum Humidity 38    
Precipitation  
Precipitation 0.00 in - - ()
Sea Level Pressure  
Sea Level Pressure 30.02 in    
Wind  
Wind Speed 5 mph (ENE)    
Max Wind Speed 12 mph    
Max Gust Speed 17 mph    
Averages and records for this station are not official NWS values.
T = Trace of Precipitation, MM = Missing Value Source: NWS Daily Summary

Daily Weather History Graph

Daily Weather History Graph

Search for Another Location

Airport or City:

Trip Planner

Search our weather history database for the weather conditions in past years. The results will help you decide how hot, cold, wet, or windy it might be!

Date:

Astronomy

Nov. 02, 2012 Rise Set
Actual Time 7:44 AM CDT 6:10 PM CDT
Civil Twilight 7:16 AM CDT 6:38 PM CDT
Nautical Twilight 6:44 AM CDT 7:10 PM CDT
Astronomical Twilight 6:13 AM CDT 7:41 PM CDT
Moon 8:58 PM CDT (11/2) 11:05 AM CDT (11/2)
Length of Visible Light 11h 21m
Length of Day
10h 25m
Waning Gibbous, 87% of the Moon is Illuminated
Nov 2
Waning Gibbous
Nov 6
Last Quarter
Nov 13
New
Nov 20
First Quarter
Nov 28
Full

Hourly Weather History & Observations

Time (CDT) Temp. Windchill Dew Point Humidity Pressure Visibility Wind Dir Wind Speed Gust Speed Precip Events Conditions
12:52 AM 45.0 °F 42.6 °F 35.1 °F 68% 30.00 in - North 4.6 mph - N/A   Unknown
1:52 AM 42.1 °F 40.2 °F 33.1 °F 70% 30.00 in - North 3.5 mph - N/A   Unknown
2:52 AM 39.0 °F 36.8 °F 33.1 °F 79% 30.03 in - NNE 3.5 mph - N/A   Unknown
3:52 AM 41.0 °F 38.0 °F 32.0 °F 70% 30.02 in - NNE 4.6 mph - N/A   Unknown
4:52 AM 39.9 °F 37.8 °F 30.9 °F 70% 30.02 in - NNE 3.5 mph - N/A   Unknown
5:52 AM 39.9 °F - 30.9 °F 70% 30.04 in - Calm Calm - N/A   Unknown
6:52 AM 39.0 °F - 30.9 °F 73% 30.05 in - Calm Calm - N/A   Unknown
7:52 AM 37.9 °F 35.5 °F 30.0 °F 73% 30.06 in - East 3.5 mph - N/A   Unknown
8:52 AM 39.9 °F 36.7 °F 30.9 °F 70% 30.07 in - East 4.6 mph - N/A   Unknown
9:52 AM 42.1 °F 37.7 °F 30.9 °F 65% 30.07 in - East 6.9 mph - N/A   Unknown
10:52 AM 45.0 °F 39.7 °F 30.9 °F 58% 30.06 in - ESE 10.4 mph - N/A   Unknown
11:52 AM 48.0 °F - 32.0 °F 54% 30.05 in - ESE 11.5 mph - N/A   Unknown
12:52 PM 52.0 °F - 33.1 °F 49% 30.03 in - ESE 9.2 mph - N/A   Unknown
1:52 PM 55.0 °F - 32.0 °F 42% 30.00 in - East 8.1 mph 17.3 mph N/A   Unknown
2:52 PM 55.0 °F - 30.0 °F 38% 29.99 in - East 8.1 mph - N/A   Unknown
3:52 PM 55.0 °F - 32.0 °F 42% 29.99 in - East 8.1 mph - N/A   Unknown
4:52 PM 55.0 °F - 30.9 °F 40% 29.98 in - East 8.1 mph 17.3 mph N/A   Unknown
5:52 PM 53.1 °F - 32.0 °F 45% 29.96 in - East 9.2 mph - N/A   Unknown
6:52 PM 51.1 °F - 32.0 °F 48% 29.99 in - East 9.2 mph - N/A   Unknown
7:52 PM 48.9 °F - 32.0 °F 52% 30.01 in - ENE 4.6 mph - N/A   Unknown
8:52 PM 46.9 °F - 33.1 °F 59% 30.02 in - NE 5.8 mph - N/A   Unknown
9:52 PM 46.9 °F - 32.0 °F 56% 30.01 in - ENE 5.8 mph - N/A   Unknown
10:52 PM 46.0 °F 43.9 °F 32.0 °F 58% 30.00 in - NE 4.6 mph - N/A   Unknown
11:52 PM 46.0 °F 42.5 °F 33.1 °F 61% 30.01 in - North 6.9 mph - N/A   Unknown